Bangkok (Don Mueang), Thailand

1:36 PM ICT on October 02, 2014 (GMT +0700)
Khu Khot | Change Station
CLOSE
Current Station
Personal Weather Station
Location: Pathum Thani, PATHUM THANI
Elevation: 15 ft
Nearby Weather Stations

Elev 15 ft 13.96 °N, 100.65 °E | Updated 6 seconds ago

Mostly Cloudy
Mostly Cloudy
94.5 °F
Feels Like 111 °F
N
2.7
Wind Variable Wind from ENE
Gusts 4.3 mph

Today
High -- | Low -- °F
--% Chance of Precip.
Yesterday
High -- | Low -- °F
Precip. -- in
6:07 AM 6:06 PM
First Quarter, 55% visible
Pressure 29.77 in
Visibility 6.2 miles
Clouds Few 2000 ft
Mostly Cloudy 30000 ft
Heat Index 111 °F
Dew Point 78 °F
Humidity 59%
Rainfall 0.15 in
Snow Depth Not available.
UV 8 out of 12
Pollen Not available.
Air Quality Not available.
Flu Activity Not available.
METAR VTBD 020630Z 01004KT 340V080 9999 FEW020TCU BKN300 32/25 Q1008 NOSIG

More Conditions Fewer Conditions

Pressure 29.77 in
Visibility 6.2 miles
Clouds Few 2000 ft
Mostly Cloudy 30000 ft
Heat Index 111 °F
Dew Point 78 °F
Humidity 59%
Rainfall 0.15 in
Snow Depth Not available.
UV 8 out of 12
Pollen Not available.
Air Quality Not available.
Flu Activity Not available.
METAR VTBD 020630Z 01004KT 340V080 9999 FEW020TCU BKN300 32/25 Q1008 NOSIG

More Conditions Fewer Conditions

10-Day Weather Forecast

Almanac

Astronomy

Oct. 02, 2014 Rise Set
Actual Time 6:07 AM ICT 6:06 PM ICT
Civil Twilight 5:45 AM ICT 6:28 PM ICT
Nautical Twilight 5:21 AM ICT 6:52 PM ICT
Astronomical Twilight 4:56 AM ICT 7:17 PM ICT
Moon 12:53 PM ICT No Moon Set
Length of Visible Light 12h 42m
Length of Day
11h 59m
Tomorrow will be 0m 46s shorter.
First Quarter, 55% of the Moon is Illuminated
Today
First Quarter
Oct 8
Full
Oct 15
Last Quarter
Oct 23
New
Oct 30
First Quarter

Yesterday's Extremes

Country Highs Country Lows

Community

WunderPhotos

Upload Photos

1,758,198 photos uploaded!

WunderBlogs® & News

Nearby

Snow Depth

Not available.

Earthquake Activity

City Distance Mag. Time & Date
No recent earthquake activity has been reported nearby.
Minimum magnitude displayed is 2.5.

Coastal Water Temperatures

Place Temperature
No Stations Reporting

Nearby Weather Stations